Regional Weather Roundup
Issued by NWS

Home | Current Version | Previous Version | Text Only | Print | Product List | Glossary Off
Versions: 1 2 3 4 5 6 7 8 9 10 11 12 13 14 15 16 17 18 19 20 21 22 23 24 25 26 27 28 29 30 31 32 33 34 35 36 37 38 39 40 41 42 43 44 45 46 47 48 49 50

000
ASUS43 KLMK 010002
RWRKY
KENTUCKY REGIONAL WEATHER ROUNDUP
NATIONAL WEATHER SERVICE LOUISVILLE KY
800 PM EDT SUN AUG 31 2014

NOTE "FAIR" INDICATES FEW OR NO CLOUDS BELOW 12,000 FEET
WITH NO SIGNIFICANT WEATHER AND/OR OBSTRUCTIONS TO VISIBILITY.

KYZ001>023-026-027-061>063-070>075-010100-
WESTERN AND SOUTH CENTRAL KENTUCKY

CITY           SKY/WX    TMP DP  RH WIND       PRES   REMARKS
PADUCAH        CLEAR     83  71  67 SW6       29.95F
HENDERSON      CLEAR     81  70  69 S5        29.95F
OWENSBORO      NOT AVBL
HOPKINSVILLE   CLEAR     80  74  81 S6        29.99F
BOWLING GREEN  CLEAR     78  71  79 SW8       30.01S
GLASGOW        CLOUDY    77  71  82 SW3       30.01F
$$

KYZ024-025-028>034-038-045-046-053-010100-
NORTH CENTRAL KENTUCKY

CITY           SKY/WX    TMP DP  RH WIND       PRES   REMARKS
LOUISVILLE/SDF MOCLDY    77  72  84 S9        29.98F
LOUISVILLE/LOU PTCLDY    76  71  85 S7        29.99S
FORT KNOX      CLOUDY    74  74 100 S5        29.98F
$$

KYZ035>037-039>044-047>052-055>060-089>105-010100-
NORTHEAST KENTUCKY

CITY           SKY/WX    TMP DP  RH WIND       PRES   REMARKS
LEXINGTON      CLOUDY    75  71  87 SW7       30.03S
COVINGTON      PTCLDY    76  68  76 S6        30.00R
FRANKFORT      CLOUDY    75  72  90 S5        30.00S
$$

KYZ054-064>069-076>088-106>120-010100-
SOUTHEAST KENTUCKY

CITY           SKY/WX    TMP DP  RH WIND       PRES   REMARKS
JACKSON        CLOUDY    72  70  93 CALM      30.07F
LONDON         CLOUDY    76  69  79 S7        30.08R
SOMERSET       CLOUDY    77  70  78 S7        30.06S
MIDDLESBORO    CLOUDY    74  71  90 S3        30.10R
MONTICELLO     FOG       75  73  93 W8G17     30.07R THUNDER VSB 1/2
$$




USA.gov is the U.S. government's official web portal to all federal, state and local government web resources and services.